| time (UTC) | temp F | wind direction | speed knots | gust knots | rain 1hr in | rain 24hr in | rain mn in | humidity % | barometer mb |
| 20260506113927 | 82 | 50 | 2.6 | 3.5 | 0.00 | 0.00 | 0.00 | 85 | 1008.3 |
| 20260506113425 | 82 | 15 | 3.5 | 7.0 | 0.00 | 0.00 | 0.00 | 85 | 1008.4 |
| 20260506112921 | 82 | 51 | 1.7 | 2.6 | 0.00 | 0.00 | 0.00 | 85 | 1008.3 |
| 20260506112419 | 82 | 348 | 2.6 | 5.2 | 0.00 | 0.00 | 0.00 | 85 | 1008.3 |
| 20260506111915 | 81 | 42 | 5.2 | 7.8 | 0.00 | 0.00 | 0.00 | 86 | 1008.3 |
| 20260506111414 | 81 | 18 | 1.7 | 7.0 | 0.00 | 0.00 | 0.00 | 86 | 1008.1 |
| 20260506110910 | 82 | 0 | 7.0 | 7.0 | 0.00 | 0.00 | 0.00 | 86 | 1008.4 |
| 20260506110408 | 82 | 42 | 5.2 | 7.0 | 0.00 | 0.00 | 0.00 | 86 | 1008.2 |
| 20260506105904 | 82 | 1 | 3.5 | 7.8 | 0.00 | 0.00 | 0.00 | 86 | 1008.3 |
| 20260506105400 | 82 | 270 | 8.7 | 12.2 | 0.00 | 0.00 | 0.00 | 86 | 1008.2 |
| 20260506104858 | 84 | 358 | 7.0 | 11.3 | 0.00 | 0.00 | 0.00 | 85 | 1008.1 |
| 20260506104355 | 84 | 0 | 5.2 | 8.7 | 0.00 | 0.00 | 0.00 | 85 | 1008.2 |
| 20260506103853 | 84 | 343 | 5.2 | 7.8 | 0.00 | 0.00 | 0.00 | 85 | 1008.2 |
| 20260506103350 | 84 | 325 | 6.1 | 8.7 | 0.00 | 0.00 | 0.00 | 84 | 1008.0 |
| 20260506102847 | 84 | 354 | 4.3 | 7.8 | 0.00 | 0.00 | 0.00 | 84 | 1007.9 |
| 20260506102345 | 84 | 336 | 6.1 | 7.8 | 0.00 | 0.00 | 0.00 | 84 | 1008.1 |
| 20260506101842 | 84 | 323 | 2.6 | 7.8 | 0.00 | 0.00 | 0.00 | 84 | 1007.8 |
| 20260506101338 | 85 | 339 | 7.8 | 9.6 | 0.00 | 0.00 | 0.00 | 83 | 1007.9 |
| 20260506100836 | 86 | 318 | 5.2 | 6.1 | 0.00 | 0.00 | 0.00 | 80 | 1007.6 |
| 20260506100335 | 86 | 341 | 1.7 | 2.6 | 0.00 | 0.00 | 0.00 | 77 | 1007.4 |
| 20260506095833 | 86 | 336 | 0.0 | 0.9 | 0.00 | 0.00 | 0.00 | 76 | 1007.3 |
| 20260506095329 | 86 | 128 | 1.7 | 2.6 | 0.00 | 0.00 | 0.00 | 76 | 1007.2 |
| 20260506094826 | 86 | 113 | 3.5 | 3.5 | 0.00 | 0.00 | 0.00 | 76 | 1006.9 |
| 20260506094325 | 86 | 153 | 0.9 | 1.7 | 0.00 | 0.00 | 0.00 | 76 | 1007.1 |
| 20260506093823 | 86 | 46 | 0.9 | 1.7 | 0.00 | 0.00 | 0.00 | 77 | 1007.0 |
| 20260506093319 | 86 | 315 | 0.0 | 0.9 | 0.00 | 0.00 | 0.00 | 77 | 1007.0 |
| 20260506092818 | 86 | 171 | 0.9 | 3.5 | 0.00 | 0.00 | 0.00 | 77 | 1006.8 |
| 20260506092315 | 86 | 185 | 1.7 | 3.5 | 0.00 | 0.00 | 0.00 | 77 | 1007.0 |
| 20260506091812 | 86 | 173 | 2.6 | 3.5 | 0.00 | 0.00 | 0.00 | 77 | 1007.1 |
| 20260506091309 | 87 | 310 | 0.9 | 1.7 | 0.00 | 0.00 | 0.00 | 76 | 1007.1 |
| 20260506090807 | 87 | 192 | 0.9 | 2.6 | 0.00 | 0.00 | 0.00 | 76 | 1006.9 |
| 20260506090304 | 87 | 179 | 1.7 | 3.5 | 0.00 | 0.00 | 0.00 | 76 | 1006.8 |
| 20260506085800 | 87 | 150 | 1.7 | 2.6 | 0.00 | 0.00 | 0.00 | 76 | 1006.8 |
| 20260506085257 | 87 | 296 | 0.0 | 2.6 | 0.00 | 0.00 | 0.00 | 75 | 1006.8 |
| 20260506084754 | 88 | 306 | 1.7 | 1.7 | 0.00 | 0.00 | 0.00 | 74 | 1007.0 |
| 20260506084250 | 88 | 250 | 0.9 | 5.2 | 0.00 | 0.00 | 0.00 | 73 | 1007.2 |
| 20260506083747 | 88 | 174 | 0.9 | 3.5 | 0.00 | 0.00 | 0.00 | 72 | 1006.8 |
| 20260506083245 | 87 | 199 | 5.2 | 6.1 | 0.00 | 0.00 | 0.00 | 73 | 1006.9 |
| 20260506082742 | 87 | 295 | 0.0 | 3.5 | 0.00 | 0.00 | 0.00 | 74 | 1006.9 |
| 20260506082237 | 86 | 249 | 1.7 | 5.2 | 0.00 | 0.00 | 0.00 | 74 | 1006.9 |
| 20260506081735 | 87 | 240 | 3.5 | 7.0 | 0.00 | 0.00 | 0.00 | 74 | 1007.1 |
| 20260506081232 | 89 | 198 | 3.5 | 7.8 | 0.00 | 0.00 | 0.00 | 73 | 1006.9 |
| 20260506080731 | 90 | 157 | 4.3 | 11.3 | 0.00 | 0.00 | 0.00 | 70 | 1006.7 |
| 20260506080227 | 91 | 161 | 7.8 | 12.2 | 0.00 | 0.00 | 0.00 | 67 | 1006.7 |
| 20260506073211 | 92 | 180 | 3.5 | 5.2 | 0.00 | 0.00 | 0.00 | 66 | 1006.6 |
| 20260506072707 | 92 | 157 | 1.7 | 6.1 | 0.00 | 0.00 | 0.00 | 67 | 1006.7 |
| 20260506072205 | 91 | 119 | 3.5 | 6.1 | 0.00 | 0.00 | 0.00 | 67 | 1006.7 |
| 20260506071702 | 91 | 97 | 3.5 | 7.0 | 0.00 | 0.00 | 0.00 | 67 | 1006.7 |
| 20260506071200 | 91 | 138 | 3.5 | 7.8 | 0.00 | 0.00 | 0.00 | 68 | 1006.8 |
| 20260506070657 | 90 | 94 | 3.5 | 7.0 | 0.00 | 0.00 | 0.00 | 68 | 1006.9 |
| 20260506070154 | 91 | 150 | 4.3 | 8.7 | 0.00 | 0.00 | 0.00 | 68 | 1006.7 |
| 20260506062131 | 94 | 344 | 0.0 | 2.6 | 0.00 | 0.00 | 0.00 | 60 | 1007.4 |
| 20260506061627 | 95 | 325 | 0.9 | 2.6 | 0.00 | 0.00 | 0.00 | 60 | 1007.3 |
| 20260506061125 | 94 | 2 | 5.2 | 6.1 | 0.00 | 0.00 | 0.00 | 61 | 1007.4 |
| 20260506060623 | 94 | 353 | 7.0 | 9.6 | 0.00 | 0.00 | 0.00 | 62 | 1007.7 |
| 20260506060120 | 95 | 321 | 3.5 | 7.0 | 0.00 | 0.00 | 0.00 | 61 | 1007.4 |
| 20260506051051 | 93 | 51 | 1.7 | 3.5 | 0.00 | 0.00 | 0.00 | 62 | 1008.8 |
| 20260506050549 | 93 | 1 | 7.0 | 8.7 | 0.00 | 0.00 | 0.00 | 62 | 1008.9 |
| 20260506045040 | 93 | 3 | 7.0 | 8.7 | 0.00 | 0.00 | 0.00 | 63 | 1009.2 |
| 20260506044538 | 93 | 114 | 2.6 | 6.1 | 0.00 | 0.00 | 0.00 | 64 | 1009.5 |
| 20260506044034 | 93 | 84 | 3.5 | 5.2 | 0.00 | 0.00 | 0.00 | 62 | 1009.5 |
| 20260506043531 | 93 | 16 | 2.6 | 7.8 | 0.00 | 0.00 | 0.00 | 63 | 1009.9 |
| 20260506043030 | 91 | 322 | 1.7 | 3.5 | 0.00 | 0.00 | 0.00 | 65 | 1009.6 |
| 20260506042529 | 92 | 59 | 5.2 | 7.0 | 0.00 | 0.00 | 0.00 | 65 | 1009.9 |
| 20260506042026 | 93 | 332 | 1.7 | 2.6 | 0.00 | 0.00 | 0.00 | 65 | 1009.9 |
| 20260506041525 | 93 | 40 | 3.5 | 5.2 | 0.00 | 0.00 | 0.00 | 65 | 1009.9 |
| 20260506041021 | 91 | 29 | 1.7 | 7.8 | 0.00 | 0.00 | 0.00 | 67 | 1010.0 |
| 20260506040519 | 91 | 55 | 7.0 | 7.8 | 0.00 | 0.00 | 0.00 | 68 | 1010.2 |
| 20260506040015 | 90 | 18 | 4.3 | 6.1 | 0.00 | 0.00 | 0.00 | 69 | 1010.2 |
| 20260506035512 | 91 | 9 | 0.9 | 7.0 | 0.00 | 0.00 | 0.00 | 68 | 1010.2 |
| 20260506035008 | 91 | 246 | 0.9 | 1.7 | 0.00 | 0.00 | 0.00 | 68 | 1010.3 |
| 20260506034506 | 90 | 26 | 4.3 | 6.1 | 0.00 | 0.00 | 0.00 | 70 | 1010.2 |
| 20260506034003 | 91 | 59 | 2.6 | 6.1 | 0.00 | 0.00 | 0.00 | 70 | 1010.3 |
| 20260506033500 | 91 | 117 | 1.7 | 7.0 | 0.00 | 0.00 | 0.00 | 70 | 1010.4 |
| 20260506032956 | 91 | 33 | 1.7 | 6.1 | 0.00 | 0.00 | 0.00 | 70 | 1010.4 |
| 20260506032454 | 90 | 105 | 2.6 | 6.1 | 0.00 | 0.00 | 0.00 | 71 | 1010.2 |
| 20260506031950 | 89 | 98 | 5.2 | 9.6 | 0.00 | 0.00 | 0.00 | 72 | 1010.4 |
| 20260506031448 | 88 | 53 | 3.5 | 7.0 | 0.00 | 0.00 | 0.00 | 73 | 1010.7 |
| 20260506030945 | 88 | 24 | 1.7 | 5.2 | 0.00 | 0.00 | 0.00 | 73 | 1010.5 |
| 20260506030443 | 87 | 119 | 2.6 | 6.1 | 0.00 | 0.00 | 0.00 | 74 | 1010.7 |
| 20260506025940 | 87 | 58 | 4.3 | 5.2 | 0.00 | 0.00 | 0.00 | 74 | 1010.7 |
| 20260506025437 | 87 | 60 | 1.7 | 3.5 | 0.00 | 0.00 | 0.00 | 74 | 1010.8 |
| 20260506024933 | 87 | 42 | 2.6 | 3.5 | 0.00 | 0.00 | 0.00 | 75 | 1010.7 |
| 20260506024430 | 87 | 54 | 1.7 | 5.2 | 0.00 | 0.00 | 0.00 | 75 | 1011.1 |
| 20260506023926 | 87 | 5 | 6.1 | 7.0 | 0.00 | 0.00 | 0.00 | 74 | 1010.9 |
| 20260506023423 | 88 | 72 | 0.9 | 5.2 | 0.00 | 0.00 | 0.00 | 74 | 1010.7 |
| 20260506022920 | 87 | 75 | 4.3 | 7.0 | 0.00 | 0.00 | 0.00 | 74 | 1010.7 |
| 20260506022418 | 87 | 30 | 2.6 | 6.1 | 0.00 | 0.00 | 0.00 | 76 | 1011.1 |
| 20260506021915 | 87 | 0 | 5.2 | 6.1 | 0.00 | 0.00 | 0.00 | 76 | 1010.8 |
| 20260506021413 | 87 | 2 | 3.5 | 7.0 | 0.00 | 0.00 | 0.00 | 77 | 1011.0 |
| 20260506020909 | 86 | 49 | 0.9 | 2.6 | 0.00 | 0.00 | 0.00 | 77 | 1010.9 |
| 20260506020407 | 86 | 38 | 5.2 | 6.1 | 0.00 | 0.00 | 0.00 | 76 | 1011.1 |
| 20260506015904 | 86 | 10 | 7.0 | 7.8 | 0.00 | 0.00 | 0.00 | 77 | 1010.8 |
| 20260506015402 | 87 | 66 | 1.7 | 3.5 | 0.00 | 0.00 | 0.00 | 77 | 1010.9 |
| 20260506014858 | 86 | 91 | 1.7 | 5.2 | 0.00 | 0.00 | 0.00 | 77 | 1010.8 |
| 20260506014355 | 86 | 73 | 4.3 | 7.8 | 0.00 | 0.00 | 0.00 | 78 | 1010.8 |
| 20260506013852 | 86 | 71 | 1.7 | 6.1 | 0.00 | 0.00 | 0.00 | 79 | 1010.7 |
| 20260506013350 | 85 | 20 | 1.7 | 2.6 | 0.00 | 0.00 | 0.00 | 80 | 1010.7 |
| 20260506012845 | 86 | 359 | 0.0 | 0.9 | 0.00 | 0.00 | 0.00 | 80 | 1010.5 |
| 20260506012343 | 86 | 17 | 1.7 | 5.2 | 0.00 | 0.00 | 0.00 | 80 | 1010.5 |
| 20260506011840 | 85 | 5 | 2.6 | 2.6 | 0.00 | 0.00 | 0.00 | 81 | 1010.7 |
| 20260506011336 | 85 | 19 | 1.7 | 2.6 | 0.00 | 0.00 | 0.00 | 81 | 1010.5 |
| 20260506010834 | 85 | 9 | 1.7 | 3.5 | 0.00 | 0.00 | 0.00 | 81 | 1010.5 |
| 20260506010332 | 85 | 35 | 0.9 | 1.7 | 0.00 | 0.00 | 0.00 | 81 | 1010.5 |
| 20260506005828 | 85 | 352 | 0.9 | 2.6 | 0.00 | 0.00 | 0.00 | 82 | 1010.6 |
| 20260506005325 | 84 | 357 | 0.0 | 0.9 | 0.00 | 0.00 | 0.00 | 82 | 1010.4 |
| 20260506004821 | 84 | 31 | 1.7 | 2.6 | 0.00 | 0.00 | 0.00 | 82 | 1010.3 |
| 20260506004319 | 84 | 1 | 0.0 | 2.6 | 0.00 | 0.00 | 0.00 | 82 | 1010.3 |
| 20260506003815 | 83 | 0 | 0.9 | 2.6 | 0.00 | 0.00 | 0.00 | 83 | 1010.3 |
| 20260506003312 | 83 | 33 | 1.7 | 5.2 | 0.00 | 0.00 | 0.00 | 83 | 1010.3 |
| 20260506002808 | 83 | 57 | 2.6 | 3.5 | 0.00 | 0.00 | 0.00 | 83 | 1010.2 |
| 20260506002306 | 83 | 19 | 0.9 | 5.2 | 0.00 | 0.00 | 0.00 | 83 | 1010.1 |
| 20260506001800 | 83 | 23 | 1.7 | 3.5 | 0.00 | 0.00 | 0.00 | 83 | 1010.0 |
| 20260506001258 | 83 | 21 | 0.0 | 2.6 | 0.00 | 0.00 | 0.00 | 84 | 1010.0 |
| 20260506000754 | 83 | 40 | 1.7 | 3.5 | 0.00 | 0.00 | 0.00 | 84 | 1009.8 |
| 20260506000254 | 83 | 40 | 1.7 | 2.6 | 0.00 | 0.00 | 0.00 | 84 | 1010.0 |
| 20260505235749 | 83 | 47 | 3.5 | 3.5 | 0.00 | 0.00 | 0.00 | 84 | 1009.8 |
| 20260505235246 | 83 | 8 | 0.9 | 1.7 | 0.00 | 0.00 | 0.00 | 84 | 1009.6 |
| 20260505234743 | 83 | 331 | 1.7 | 2.6 | 0.00 | 0.00 | 0.00 | 85 | 1009.6 |
| 20260505234241 | 82 | 32 | 1.7 | 3.5 | 0.00 | 0.00 | 0.00 | 85 | 1009.5 |
| 20260505233737 | 82 | 9 | 1.7 | 2.6 | 0.00 | 0.00 | 0.00 | 85 | 1009.6 |
| 20260505233235 | 82 | 350 | 2.6 | 2.6 | 0.00 | 0.00 | 0.00 | 85 | 1009.5 |
| 20260505232732 | 83 | 17 | 1.7 | 3.5 | 0.00 | 0.00 | 0.00 | 85 | 1009.5 |
| 20260505232229 | 83 | 338 | 1.7 | 3.5 | 0.00 | 0.00 | 0.00 | 86 | 1009.4 |
| 20260505231726 | 82 | 47 | 1.7 | 3.5 | 0.00 | 0.00 | 0.00 | 86 | 1009.2 |
| 20260505231225 | 82 | 57 | 1.7 | 2.6 | 0.00 | 0.00 | 0.00 | 86 | 1009.1 |
| 20260505230723 | 82 | 15 | 1.7 | 1.7 | 0.00 | 0.00 | 0.00 | 86 | 1009.2 |
| 20260505230219 | 82 | 8 | 0.9 | 1.7 | 0.00 | 0.00 | 0.00 | 87 | 1009.1 |
| 20260505225715 | 82 | 92 | 0.9 | 1.7 | 0.00 | 0.00 | 0.00 | 87 | 1009.0 |
| 20260505225212 | 82 | 94 | 1.7 | 2.6 | 0.00 | 0.00 | 0.00 | 87 | 1009.1 |
| 20260505224708 | 82 | 32 | 1.7 | 2.6 | 0.00 | 0.00 | 0.00 | 87 | 1008.9 |
| 20260505224206 | 82 | 66 | 0.9 | 1.7 | 0.00 | 0.00 | 0.00 | 87 | 1009.0 |
| 20260505223703 | 82 | 38 | 1.7 | 1.7 | 0.00 | 0.00 | 0.00 | 88 | 1008.9 |
| 20260505223159 | 82 | 41 | 1.7 | 2.6 | 0.00 | 0.00 | 0.00 | 88 | 1009.0 |
| 20260505222655 | 82 | 42 | 1.7 | 2.6 | 0.00 | 0.00 | 0.00 | 88 | 1008.8 |
| 20260505222151 | 82 | 24 | 1.7 | 2.6 | 0.00 | 0.00 | 0.00 | 88 | 1008.6 |
| 20260505221649 | 81 | 58 | 1.7 | 2.6 | 0.00 | 0.00 | 0.00 | 88 | 1008.7 |
| 20260505221145 | 81 | 28 | 0.9 | 2.6 | 0.00 | 0.00 | 0.00 | 88 | 1008.5 |
| 20260505220643 | 81 | 2 | 0.0 | 0.9 | 0.00 | 0.00 | 0.00 | 88 | 1008.5 |
| 20260505220140 | 81 | 21 | 0.9 | 2.6 | 0.00 | 0.00 | 0.00 | 88 | 1008.6 |
| 20260505215638 | 81 | 31 | 1.7 | 1.7 | 0.00 | 0.00 | 0.00 | 88 | 1008.6 |
| 20260505215136 | 81 | 25 | 0.9 | 2.6 | 0.00 | 0.00 | 0.00 | 88 | 1008.4 |
| 20260505214633 | 81 | 49 | 0.9 | 2.6 | 0.00 | 0.00 | 0.00 | 88 | 1008.5 |
| 20260505214130 | 81 | 19 | 0.0 | 3.5 | 0.00 | 0.00 | 0.00 | 88 | 1008.6 |
| 20260505213628 | 81 | 12 | 1.7 | 3.5 | 0.00 | 0.00 | 0.00 | 88 | 1008.5 |
| 20260505213124 | 81 | 25 | 2.6 | 3.5 | 0.00 | 0.00 | 0.00 | 88 | 1008.4 |
| 20260505212620 | 81 | 56 | 1.7 | 2.6 | 0.00 | 0.00 | 0.00 | 88 | 1008.5 |
| 20260505212118 | 81 | 65 | 1.7 | 2.6 | 0.00 | 0.00 | 0.00 | 88 | 1008.4 |
| 20260505211615 | 81 | 42 | 0.9 | 2.6 | 0.00 | 0.00 | 0.00 | 88 | 1008.3 |
| 20260505211112 | 81 | 331 | 0.9 | 0.9 | 0.00 | 0.00 | 0.00 | 88 | 1008.4 |
| 20260505210609 | 81 | 353 | 1.7 | 1.7 | 0.00 | 0.00 | 0.00 | 88 | 1008.3 |
| 20260505210106 | 81 | 354 | 1.7 | 2.6 | 0.00 | 0.00 | 0.00 | 88 | 1008.5 |
| 20260505205603 | 81 | 1 | 1.7 | 3.5 | 0.00 | 0.00 | 0.00 | 88 | 1008.4 |
| 20260505205101 | 81 | 333 | 1.7 | 2.6 | 0.00 | 0.00 | 0.00 | 88 | 1008.3 |
| 20260505204558 | 81 | 334 | 1.7 | 3.5 | 0.00 | 0.00 | 0.00 | 88 | 1008.4 |
| 20260505204055 | 81 | 341 | 2.6 | 3.5 | 0.00 | 0.00 | 0.00 | 88 | 1008.3 |
| 20260505203551 | 81 | 346 | 3.5 | 5.2 | 0.00 | 0.00 | 0.00 | 88 | 1008.2 |
| 20260505203049 | 81 | 345 | 3.5 | 3.5 | 0.00 | 0.00 | 0.00 | 88 | 1008.1 |
| 20260505202544 | 81 | 357 | 1.7 | 2.6 | 0.00 | 0.00 | 0.00 | 88 | 1008.2 |
| 20260505202040 | 81 | 336 | 2.6 | 3.5 | 0.00 | 0.00 | 0.00 | 88 | 1008.2 |
| 20260505201538 | 81 | 335 | 1.7 | 1.7 | 0.00 | 0.00 | 0.00 | 88 | 1008.0 |
| 20260505201036 | 81 | 327 | 0.9 | 0.9 | 0.00 | 0.00 | 0.00 | 88 | 1008.1 |
| 20260505200533 | 81 | 341 | 0.9 | 0.9 | 0.00 | 0.00 | 0.00 | 88 | 1008.2 |
| 20260505200030 | 81 | 353 | 0.9 | 0.9 | 0.00 | 0.00 | 0.00 | 88 | 1008.0 |
| 20260505195526 | 81 | 8 | 0.0 | 0.9 | 0.00 | 0.00 | 0.00 | 88 | 1008.2 |
| 20260505195023 | 81 | 335 | 0.0 | 0.9 | 0.00 | 0.00 | 0.00 | 88 | 1008.2 |
| 20260505194516 | 81 | 344 | 0.9 | 0.9 | 0.00 | 0.00 | 0.00 | 88 | 1008.2 |
| 20260505194015 | 81 | 332 | 0.0 | 0.9 | 0.00 | 0.00 | 0.00 | 88 | 1008.3 |
| 20260505193513 | 81 | 317 | 1.7 | 1.7 | 0.00 | 0.00 | 0.00 | 88 | 1008.3 |
| 20260505193010 | 81 | 345 | 1.7 | 1.7 | 0.00 | 0.00 | 0.00 | 88 | 1008.3 |
| 20260505192509 | 81 | 333 | 1.7 | 1.7 | 0.00 | 0.00 | 0.00 | 88 | 1008.2 |
| 20260505192006 | 81 | 7 | 0.0 | 0.9 | 0.00 | 0.00 | 0.00 | 88 | 1008.4 |
| 20260505191504 | 81 | 37 | 0.9 | 1.7 | 0.00 | 0.00 | 0.00 | 88 | 1008.2 |
| 20260505191002 | 81 | 12 | 0.0 | 1.7 | 0.00 | 0.00 | 0.00 | 88 | 1008.5 |
| 20260505190456 | 81 | 61 | 1.7 | 2.6 | 0.00 | 0.00 | 0.00 | 88 | 1008.4 |
| 20260505185952 | 81 | 27 | 0.0 | 1.7 | 0.00 | 0.00 | 0.00 | 88 | 1008.3 |
| 20260505185450 | 81 | 1 | 0.0 | 1.7 | 0.00 | 0.00 | 0.00 | 88 | 1008.5 |
| 20260505184945 | 81 | 15 | 0.9 | 1.7 | 0.00 | 0.00 | 0.00 | 88 | 1008.6 |
| 20260505184442 | 81 | 347 | 2.6 | 2.6 | 0.00 | 0.00 | 0.00 | 88 | 1008.8 |
| 20260505183939 | 81 | 340 | 0.9 | 1.7 | 0.00 | 0.00 | 0.00 | 88 | 1008.8 |
| 20260505183436 | 80 | 348 | 1.7 | 2.6 | 0.00 | 0.00 | 0.00 | 88 | 1008.6 |
| 20260505182933 | 81 | 346 | 2.6 | 3.5 | 0.00 | 0.00 | 0.00 | 88 | 1008.9 |
| 20260505182430 | 80 | 336 | 2.6 | 3.5 | 0.00 | 0.00 | 0.00 | 88 | 1008.7 |
| 20260505181926 | 80 | 6 | 1.7 | 2.6 | 0.00 | 0.00 | 0.00 | 88 | 1008.7 |
| 20260505181424 | 80 | 348 | 1.7 | 3.5 | 0.00 | 0.00 | 0.00 | 88 | 1008.9 |
| 20260505180920 | 80 | 354 | 4.3 | 6.1 | 0.00 | 0.00 | 0.00 | 88 | 1008.9 |
| 20260505180416 | 80 | 343 | 3.5 | 3.5 | 0.00 | 0.00 | 0.00 | 88 | 1009.0 |
| 20260505175913 | 80 | 342 | 2.6 | 2.6 | 0.00 | 0.00 | 0.00 | 88 | 1008.9 |
| 20260505175409 | 80 | 326 | 2.6 | 3.5 | 0.00 | 0.00 | 0.00 | 88 | 1008.9 |
| 20260505174906 | 80 | 333 | 1.7 | 1.7 | 0.00 | 0.00 | 0.00 | 88 | 1009.0 |
| 20260505174404 | 81 | 343 | 1.7 | 3.5 | 0.00 | 0.00 | 0.00 | 88 | 1009.1 |
| 20260505173859 | 81 | 339 | 1.7 | 2.6 | 0.00 | 0.00 | 0.00 | 88 | 1009.3 |
| 20260505173356 | 81 | 297 | 3.5 | 3.5 | 0.00 | 0.00 | 0.00 | 87 | 1009.4 |
| 20260505172853 | 82 | 295 | 3.5 | 3.5 | 0.00 | 0.00 | 0.00 | 87 | 1009.2 |
| 20260505172351 | 82 | 334 | 2.6 | 3.5 | 0.00 | 0.00 | 0.00 | 87 | 1009.3 |
| 20260505171850 | 82 | 337 | 1.7 | 2.6 | 0.00 | 0.00 | 0.00 | 86 | 1009.3 |
| 20260505171347 | 82 | 315 | 1.7 | 2.6 | 0.00 | 0.00 | 0.00 | 86 | 1009.3 |
| 20260505170844 | 83 | 293 | 2.6 | 3.5 | 0.00 | 0.00 | 0.00 | 85 | 1009.4 |
| 20260505170341 | 84 | 2 | 0.0 | 0.0 | 0.00 | 0.00 | 0.00 | 85 | 1009.5 |
| 20260505165836 | 83 | 54 | 1.7 | 1.7 | 0.00 | 0.28 | 0.28 | 85 | 1009.5 |
| 20260505165332 | 83 | 33 | 0.9 | 1.7 | 0.00 | 0.28 | 0.28 | 85 | 1009.7 |
| 20260505164828 | 83 | 42 | 0.9 | 1.7 | 0.00 | 0.28 | 0.28 | 85 | 1009.7 |
| 20260505164325 | 83 | 49 | 0.9 | 0.9 | 0.00 | 0.28 | 0.28 | 85 | 1009.7 |
| 20260505163823 | 83 | 48 | 0.9 | 1.7 | 0.00 | 0.28 | 0.28 | 85 | 1009.7 |
| 20260505163321 | 83 | 29 | 0.0 | 1.7 | 0.00 | 0.28 | 0.28 | 85 | 1009.9 |
| 20260505162814 | 83 | 34 | 0.9 | 1.7 | 0.00 | 0.28 | 0.28 | 85 | 1010.0 |
| 20260505162310 | 82 | 93 | 1.7 | 2.6 | 0.00 | 0.28 | 0.28 | 86 | 1009.9 |
| 20260505161808 | 82 | 15 | 0.0 | 1.7 | 0.00 | 0.28 | 0.28 | 86 | 1009.9 |
| 20260505161305 | 82 | 70 | 0.9 | 1.7 | 0.00 | 0.28 | 0.28 | 87 | 1009.7 |
| 20260505160802 | 82 | 355 | 0.0 | 0.9 | 0.00 | 0.28 | 0.28 | 87 | 1009.6 |
| 20260505160300 | 82 | 338 | 0.9 | 0.9 | 0.00 | 0.28 | 0.28 | 87 | 1009.7 |
| 20260505153238 | 82 | 335 | 0.9 | 0.9 | 0.00 | 0.28 | 0.28 | 87 | 1009.7 |
| 20260505152735 | 82 | 353 | 0.9 | 1.7 | 0.00 | 0.28 | 0.28 | 87 | 1009.7 |
| 20260505152231 | 82 | 0 | 0.0 | 0.0 | 0.00 | 0.28 | 0.28 | 87 | 1009.6 |
| 20260505151726 | 81 | 15 | 0.0 | 0.9 | 0.00 | 0.28 | 0.28 | 87 | 1009.8 |
| 20260505151224 | 81 | 7 | 0.0 | 0.9 | 0.00 | 0.28 | 0.28 | 88 | 1009.9 |
| 20260505150720 | 81 | 9 | 0.0 | 0.9 | 0.00 | 0.28 | 0.28 | 88 | 1009.8 |
| 20260505150217 | 81 | 11 | 0.0 | 0.9 | 0.00 | 0.28 | 0.28 | 88 | 1009.9 |
| 20260505140645 | 81 | 11 | 0.0 | 0.9 | 0.00 | 0.28 | 0.28 | 88 | 1010.0 |
| 20260505140142 | 81 | 11 | 0.0 | 0.9 | 0.00 | 0.28 | 0.28 | 88 | 1010.0 |
| 20260505130106 | 78 | 283 | 1.7 | 1.7 | 0.00 | 0.28 | 0.28 | 90 | 1009.8 |
| 20260505124555 | 78 | 304 | 0.9 | 5.2 | 0.00 | 0.28 | 0.28 | 90 | 1009.7 |
| 20260505124052 | 78 | 304 | 0.9 | 5.2 | 0.00 | 0.28 | 0.28 | 90 | 1009.7 |
| 20260505123548 | 78 | 282 | 2.6 | 5.2 | 0.00 | 0.28 | 0.28 | 90 | 1009.7 |
| 20260505123045 | 77 | 275 | 2.6 | 3.5 | 0.00 | 0.28 | 0.28 | 91 | 1009.5 |
| 20260505122542 | 77 | 321 | 1.7 | 5.2 | 0.00 | 0.28 | 0.28 | 91 | 1009.8 |
| 20260505122038 | 77 | 331 | 3.5 | 3.5 | 0.00 | 0.28 | 0.28 | 91 | 1009.7 |
| 20260505121534 | 77 | 274 | 6.1 | 11.3 | 0.00 | 0.28 | 0.28 | 91 | 1009.6 |
| 20260505121031 | 77 | 289 | 3.5 | 7.0 | 0.07 | 0.28 | 0.28 | 91 | 1009.6 |
| 20260505120529 | 77 | 321 | 7.0 | 8.7 | 0.07 | 0.28 | 0.28 | 91 | 1009.3 |
| 20260505120024 | 77 | 324 | 7.8 | 11.3 | 0.00 | 0.27 | 0.27 | 91 | 1009.1 |
| 20260505115519 | 78 | 333 | 10.4 | 13.0 | 0.00 | 0.27 | 0.27 | 91 | 1009.1 |
| 20260505115017 | 78 | 307 | 7.0 | 12.2 | 0.00 | 0.27 | 0.27 | 91 | 1009.5 |
| 20260505114513 | 79 | 344 | 12.2 | 18.2 | 0.00 | 0.27 | 0.27 | 91 | 1009.3 |